Flag Weather past 2 weeks in Peoria, Illinois, U.S.A.

Now
19 °F

Clear.


Feels Like: 11 °F
Forecast: 12 / 39 °F
Wind: 6 mph from Southeast

Location: Greater Peoria Regional Airport

Current Time: Nov 28, 2014 at 8:04:14 AM

Latest Report: Nov 28, 2014 at 6:54 AM


Visibility: 10 mi

Pressure: 30.29 "Hg

Humidity: 65%

Dew point: 9 °F

Location of PeoriaLocation

Historic Weather in Peoria — Graph

°F

Peoria temperature yesterday

Maximum temperature yesterday: 28 °F (at 8:54 AM)
Minimum temperature yesterday: 14 °F (at 7:54 PM)
Average temperature yesterday: 22 °F

Past Weeks' High & Low Weather Summary

 TemperatureHumidityPressure
High58 °F (Nov 22, 1:54 PM)92% (Nov 24, 12:54 AM)30.50 "Hg (Nov 24, 12:54 AM)
Low12 °F (Nov 18, 4:54 AM)26% (Nov 21, 1:54 PM)29.14 "Hg (Nov 24, 12:54 AM)
Average29 °F67%30.12 "Hg
* Reported Nov 13 6:54 AM — Nov 28 6:54 AM, Peoria, Weather by CustomWeather, © 2014

Note: Actual official high and low records may vary slightly from our data, if they occured in-between our weather recording intervals... More about our weather records

Advertising

Peoria weather history for previous 24 hours

 ConditionsComfort  
Time TempWeatherWind HumidityBarometerVisibility
6:54 AM
Nov 28
19 °FClear.6 mph65%30.29 "Hg10 mi
5:54 AM19 °FPassing clouds.8 mph65%30.32 "Hg10 mi
4:54 AM20 °FOvercast.9 mph68%30.34 "Hg10 mi
3:54 AM19 °FOvercast.9 mph68%30.37 "Hg10 mi
2:54 AM19 °FOvercast.7 mph65%30.39 "Hg10 mi
1:54 AM18 °FOvercast.6 mph71%30.40 "Hg10 mi
12:54 AM16 °FOvercast.No wind71%30.43 "Hg10 mi
11:54 PM
Nov 27
15 °FOvercast.No wind74%30.44 "Hg10 mi
10:54 PM14 °FPassing clouds.7 mph77%30.47 "Hg10 mi
9:54 PM15 °FClear.3 mph77%30.46 "Hg10 mi
8:54 PM14 °FClear.3 mph71%30.48 "Hg10 mi
7:54 PM14 °FClear.3 mph73%30.47 "Hg10 mi
6:54 PM15 °FClear.6 mph70%30.49 "Hg10 mi
5:54 PM17 °FClear.5 mph68%30.50 "Hg10 mi
4:54 PM20 °FClear.7 mph62%30.49 "Hg10 mi
3:54 PM22 °FSunny.8 mph66%30.47 "Hg10 mi
2:54 PM24 °FPartly sunny.10 mph62%30.46 "Hg10 mi
1:54 PM25 °FOvercast.12 mph69%30.45 "Hg10 mi
12:54 PM25 °FOvercast.12 mph69%30.45 "Hg10 mi
12:02 PM26 °FOvercast.15 mph71%30.42 "Hg9 mi
11:54 AM26 °FOvercast.12 mph69%30.45 "Hg9 mi
10:54 AM26 °FOvercast.12 mph71%30.45 "Hg5 mi
9:59 AM27 °FLight snow. Mostly cloudy.10 mph75%30.42 "Hg3 mi
8:54 AM28 °FLight snow. Mostly cloudy.7 mph75%30.43 "Hg2 mi
Weather by CustomWeather, © 2014

See weather overviewHow to use our weather pages